Location: Minneapolis
(44.9800°N, 93.2640°W)
Time: 11:21:13
(UTC-05:00)

Envisat - Visible Passes

Search period start: 19 October 2017 00:00
Search period end: 29 October 2017 00:00
Orbit: 764 x 766 km, 98.2° (Epoch: 19 October)

Date Brightness Start Highest point End Pass type
(mag) Time Alt. Az. Time Alt. Az. Time Alt. Az.
19 Oct 4.3 19:35:33 19° ENE 19:36:03 19° ENE 19:39:31 10° NNE visible
19 Oct 3.8 21:15:46 49° NW 21:15:46 49° NW 21:19:38 10° NNW visible
20 Oct 3.3 20:38:47 52° NNE 20:38:47 52° NNE 20:42:54 10° N visible
20 Oct 5.6 22:19:00 15° WNW 22:19:00 15° WNW 22:20:42 10° NW visible
21 Oct 3.9 20:01:49 29° NE 20:01:49 29° NE 20:05:46 10° N visible
21 Oct 4.8 21:42:01 29° WNW 21:42:01 29° WNW 21:45:00 10° NNW visible
22 Oct 4.6 19:24:49 15° ENE 19:25:05 15° ENE 19:27:59 10° NNE visible
22 Oct 3.8 21:05:02 45° NNW 21:05:02 45° NNW 21:08:33 10° NNW visible
23 Oct 3.6 20:28:03 40° NNE 20:28:03 40° NNE 20:31:43 10° N visible
23 Oct 5.5 22:08:16 17° WNW 22:08:16 17° WNW 22:10:01 10° NW visible
24 Oct 4.2 19:51:03 24° NE 19:51:03 24° NE 19:54:27 10° N visible
24 Oct 4.7 21:31:16 29° NW 21:31:16 29° NW 21:34:01 10° NNW visible
25 Oct 4.8 19:14:04 13° ENE 19:14:08 13° ENE 19:16:15 10° NNE visible
25 Oct 3.9 20:54:17 39° N 20:54:17 39° N 20:57:28 10° NNW visible
26 Oct 3.9 20:17:18 32° NNE 20:17:18 32° NNE 20:20:30 10° N visible
26 Oct 5.4 21:57:31 18° NW 21:57:31 18° NW 21:59:13 10° NW visible
27 Oct 4.4 19:40:18 19° NE 19:40:18 19° NE 19:43:03 10° NNE visible
27 Oct 4.7 21:20:31 28° NNW 21:20:31 28° NNW 21:23:00 10° NNW visible
28 Oct 4.9 19:03:18 10° NE 19:03:18 10° NE 19:03:42 10° NE visible
28 Oct 4.1 20:43:31 33° N 20:43:31 33° N 20:46:19 10° N visible
28 Oct 6.0 22:23:44 10° NW 22:23:44 10° NW 22:23:52 10° NW visible
